Location: Peach Mountain Observatory
(42.3967°N, 83.9367°W)
Time: 06:35:37
(UTC-05:00)

S-56A Canister/Altair - Pass Details

Date: 01 February 2020
Orbit: 633 x 2499 km, 38.9° (Epoch: 22 February)

Event Time Altitude Azimuth Distance (km) Brightness Sun altitude
Rises 19:43:27 0° 255° (WSW) 4,923 13.1 -21.3°
Reaches altitude 10° 19:47:13 10° 253° (WSW) 3,630 12.0 -21.9°
Maximum altitude 19:55:47 64° 175° (S) 1,175 8.3 -23.5°
Enters shadow 19:57:36 46° 116° (ESE) 1,303 8.2 -23.9°
Drops below altitude 10° 20:01:29 10° 94° (E) 2,455 - -24.6°
Sets 20:03:37 0° 91° (E) 3,242 - -25.0°
